TimePDT,TemperatureF,Dew PointF,Humidity,Sea Level PressureIn,VisibilityMPH,Wind Direction,Wind SpeedMPH,Gust SpeedMPH,PrecipitationIn,Events,Conditions,WindDirDegrees,DateUTC
12:53 AM,59.0,46.0,62,29.94,10.0,Calm,Calm,-,N/A,,Clear,0,2012-10-26 07:53:00
1:53 AM,57.9,45.0,62,29.95,10.0,Calm,Calm,-,N/A,,Clear,0,2012-10-26 08:53:00
2:53 AM,59.0,42.1,53,29.93,10.0,Calm,Calm,-,N/A,,Clear,0,2012-10-26 09:53:00
3:53 AM,57.9,39.9,51,29.91,10.0,Calm,Calm,-,N/A,,Clear,0,2012-10-26 10:53:00
4:53 AM,62.1,34.0,35,29.92,10.0,Calm,Calm,-,N/A,,Clear,0,2012-10-26 11:53:00
5:53 AM,60.1,34.0,38,29.94,10.0,NNE,3.5,-,N/A,,Clear,20,2012-10-26 12:53:00
6:53 AM,60.1,34.0,38,29.95,10.0,Calm,Calm,-,N/A,,Clear,0,2012-10-26 13:53:00
7:53 AM,66.0,30.9,27,29.97,10.0,North,3.5,-,N/A,,Clear,10,2012-10-26 14:53:00
8:53 AM,73.0,33.1,23,29.99,10.0,Calm,Calm,-,N/A,,Clear,0,2012-10-26 15:53:00
9:53 AM,78.1,32.0,19,29.99,10.0,Variable,3.5,-,N/A,,Clear,0,2012-10-26 16:53:00
10:53 AM,82.0,28.9,14,29.98,10.0,NNW,4.6,-,N/A,,Clear,340,2012-10-26 17:53:00
11:53 AM,86.0,28.0,12,29.96,10.0,NNE,4.6,-,N/A,,Clear,30,2012-10-26 18:53:00
12:53 PM,88.0,27.0,11,29.93,10.0,Calm,Calm,-,N/A,,Clear,0,2012-10-26 19:53:00
1:53 PM,80.1,39.0,23,29.91,10.0,West,10.4,-,N/A,,Clear,270,2012-10-26 20:53:00
2:53 PM,78.8,46.4,32,29.91,10.0,West,6.9,-,N/A,,Clear,280,2012-10-26 21:53:00
3:53 PM,80.1,39.9,24,29.90,10.0,West,6.9,-,N/A,,Clear,260,2012-10-26 22:53:00
4:53 PM,79.0,32.0,18,29.89,10.0,West,5.8,-,N/A,,Clear,260,2012-10-26 23:53:00
5:53 PM,75.9,42.1,30,29.89,10.0,WNW,3.5,-,N/A,,Clear,300,2012-10-27 00:53:00
6:53 PM,73.0,39.9,30,29.91,10.0,Calm,Calm,-,N/A,,Clear,0,2012-10-27 01:53:00
7:53 PM,69.1,39.0,33,29.91,10.0,Calm,Calm,-,N/A,,Clear,0,2012-10-27 02:53:00
8:53 PM,70.0,35.1,28,29.91,10.0,ENE,4.6,-,N/A,,Clear,60,2012-10-27 03:53:00
9:53 PM,66.9,33.1,28,29.91,10.0,Calm,Calm,-,N/A,,Clear,0,2012-10-27 04:53:00
10:53 PM,69.1,27.0,21,29.91,10.0,NE,4.6,-,N/A,,Clear,40,2012-10-27 05:53:00
11:53 PM,71.1,19.0,14,29.89,10.0,NNE,6.9,-,N/A,,Clear,20,2012-10-27 06:53:00